Location: *
(37.5724°S, 58.0067°E)
Time: 10:13:28
(UTC+00:00)

Cosmos 2026 Rocket - Pass Details

Date: 26 September 2020
Orbit: 940 x 1000 km, 82.9° (Epoch: 29 October)

Event Time Altitude Azimuth Distance (km) Brightness Sun altitude
Exits shadow 16:41:55 62° 153° (SSE) 1,098 4.1 -30.0°
Drops below altitude 10° 16:47:04 10° 170° (S) 2,724 6.5 -30.9°
Sets 16:49:34 0° 171° (S) 3,669 7.3 -31.3°
